Regional Weather Roundup
Issued by NWS

Home | Current Version | Previous Version | Graphics & Text | Print | Product List | Glossary On
Versions: 1 2 3 4 5 6 7 8 9 10 11 12 13 14 15 16 17 18 19 20 21 22 23 24 25 26 27 28 29 30 31 32 33 34 35 36 37 38 39 40 41 42 43 44 45 46 47 48 49 50
000
ASUS44 KMEG 281100
RWRTN
TENNESSEE HOURLY STATE WEATHER ROUNDUP
NATIONAL WEATHER SERVICE MEMPHIS TN
600 AM CDT THU JUL 28 2016

TNZ002-004-019-021-049-052-054-088>092-281200-
WEST TENNESSEE

CITY           SKY/WX    TMP DP  RH WIND       PRES   REMARKS
MEMPHIS INTL   RAIN      76  73  91 W8        29.92R
NWS MEMPHIS      N/A     74 N/A N/A MISG        N/A
JACKSON        HVY RAIN  74  74 100 SW5       29.91R FOG
DYERSBURG      CLOUDY    75  73  94 CALM      29.91S
PARIS          MOCLDY    72  72 100 CALM      29.92R
$$

TNZ008-025-027-028-033-062-065-066-281200-
NORTH MIDDLE TENNESSEE

CITY           SKY/WX    TMP DP  RH WIND       PRES   REMARKS
NASHVILLE      CLOUDY    76  73  91 SW5       29.93S
CLARKSVILLE    CLOUDY    72  70  93 SE3       29.92F
COOKEVILLE     CLOUDY    75  73  94 SW3       29.96S
CROSSVILLE     CLOUDY    73  69  87 S6        30.02F
$$

TNZ061-075-076-078-094-096-097-281200-
SOUTH MIDDLE TENNESSEE

CITY           SKY/WX    TMP DP  RH WIND       PRES   REMARKS
SHELBYVILLE    PTCLDY    77  73  88 S8        29.97S
$$

TNZ017-018-042-046-047-281200-
NORTHEAST TENNESSEE

CITY           SKY/WX    TMP DP  RH WIND       PRES   REMARKS
TRI CITIES     PTCLDY    69  68  96 CALM      30.02R
$$

TNZ012-013-036-069-073-074-281200-
CENTRAL EAST TENNESSEE

CITY           SKY/WX    TMP DP  RH WIND       PRES   REMARKS
KNOXVILLE      CLOUDY    77  69  76 SW6       29.98S
OAK RIDGE      CLOUDY    78  69  73 CALM      30.00S
GATLINBURG     CLEAR     75  66  73 S3        29.99S
$$

TNZ083-085-099-281200-
SOUTHEAST TENNESSEE

CITY           SKY/WX    TMP DP  RH WIND       PRES   REMARKS
CHATTANOOGA    PTCLDY    75  69  81 S5        29.99S
$$

SKY/WX REPORTED AS FAIR MEANS FEW OR NO CLOUDS BELOW
12 THOUSAND FEET.





USA.gov is the U.S. government's official web portal to all federal, state and local government web resources and services.